Vorticity
4 4 3 3 3 3 4 6 6 7 7 7 7 7 7 7 6 6 6 5 5 4 4 4 4 3 4 4 3 3 3 2 2 2 1 1 1 1 0 1 1 1 1 1 1 1 1 1 2 3 4 6 6 7 8 7 6 6 6 6 7 8 8 8 7 7 7 7 8
4 3 2 1 1 2 2 3 5 6 7 7 8 8 8 7 6 6 5 5 4 4 3 3 3 4 4 4 3 3 3 2 2 1 1 1 1 1 0 0 0 0 0 1 1 1 1 1 2 3 5 6 8 8 9 8 7 6 6 7 8 8 8 7 7 7 7 8 8
4 2 1 0 0 1 2 3 4 5 6 7 8 8 8 8 7 6 5 4 3 3 3 3 4 4 4 3 3 3 2 2 2 1 1 1 1 1 1 0 0 0 1 1 1 1 1 2 3 4 6 8 9 9 9 8 7 7 7 7 8 8 8 7 7 7 7 8 9
3 1 0 -0 0 2 3 4 4 5 5 6 7 7 8 7 7 6 5 4 4 4 4 4 4 4 4 3 3 3 2 2 2 1 1 1 1 1 0 0 0 1 1 1 1 1 2 3 4 6 8 9 10 10 9 8 7 8 8 7 8 7 7 6 6 7 8 9 10
2 2 1 1 2 3 3 4 4 4 4 5 6 6 6 6 6 5 4 4 5 5 5 4 4 4 4 3 3 3 2 2 2 1 1 1 1 1 1 1 1 1 1 1 1 2 3 4 6 7 9 10 10 10 8 7 7 7 8 8 8 7 6 6 7 7 8 9 10
3 2 2 3 3 3 3 3 3 3 4 4 5 5 5 5 5 5 5 6 5 5 4 4 4 4 4 4 4 3 3 2 2 2 1 1 1 1 1 1 1 1 1 1 2 2 4 5 7 8 10 10 10 9 8 7 7 7 8 8 7 7 6 6 7 8 9 10 11
3 3 3 3 2 2 2 2 2 3 4 5 6 6 5 5 5 5 5 4 4 4 4 4 4 4 4 4 4 4 3 2 2 2 2 1 1 1 1 1 1 2 2 2 2 3 5 6 8 9 10 10 9 8 8 8 8 8 8 7 7 6 6 6 7 8 10 11 12
4 3 3 2 2 1 1 1 2 3 4 6 7 6 6 5 5 4 4 4 5 5 5 5 5 5 4 4 4 4 3 3 2 2 2 2 1 2 2 2 2 2 2 2 3 4 6 8 9 10 9 9 8 8 7 7 8 8 8 6 6 6 6 7 8 9 11 12 12
4 3 2 2 1 1 1 2 2 4 5 6 7 6 5 5 4 4 4 5 6 5 5 5 5 5 5 5 4 4 3 3 2 2 2 2 2 2 2 2 2 2 2 3 4 6 7 9 10 10 9 8 8 7 7 8 8 8 7 6 5 6 6 7 9 10 11 12 12
3 2 2 2 2 2 2 2 4 5 6 6 6 6 5 4 4 5 6 6 5 5 5 5 5 5 5 5 5 4 4 3 3 2 2 2 2 2 2 2 2 2 3 4 6 7 8 9 10 9 9 8 7 7 7 8 8 7 6 5 5 6 7 9 10 11 12 13 12
2 2 2 2 2 2 2 3 4 5 6 6 6 6 5 5 5 6 6 5 5 5 5 5 6 6 6 5 5 4 3 3 3 2 2 2 2 2 2 3 3 3 4 5 7 8 9 10 9 9 8 8 8 7 7 8 7 6 5 4 5 6 8 10 11 12 12 12 12
1 1 1 1 1 1 2 2 3 4 5 6 6 6 6 6 6 6 6 6 6 5 5 5 6 6 5 5 4 4 3 3 3 3 2 2 2 3 3 3 3 4 5 6 8 9 10 9 8 8 8 8 8 8 8 7 6 5 4 4 6 8 9 11 12 12 12 12 11
0 -0 -0 -0 0 1 1 2 3 5 6 6 7 7 6 7 6 6 6 6 6 5 5 6 6 6 6 5 4 4 3 3 3 3 3 3 3 3 3 4 4 5 6 8 9 9 9 8 8 7 7 8 8 8 7 6 5 4 4 5 7 9 11 12 12 12 12 12 11
-0 -0 -0 0 1 2 2 3 4 5 6 7 7 7 7 7 7 7 6 6 5 5 5 6 6 6 6 5 4 4 3 3 3 3 3 3 3 4 4 4 5 6 7 9 9 9 8 7 7 8 8 8 8 8 6 5 4 4 5 6 9 10 12 13 12 12 11 11 10
2 3 3 4 4 4 4 5 6 6 6 7 7 7 7 7 6 6 6 6 6 5 5 5 5 5 5 5 4 3 3 3 3 3 3 4 4 4 4 5 6 7 8 9 8 8 7 7 7 8 8 9 8 6 5 4 4 4 6 8 10 12 12 12 12 11 11 10 9
7 7 8 9 8 8 7 6 6 7 7 7 7 7 7 7 6 6 6 5 5 5 5 5 4 4 4 4 4 4 3 3 4 4 4 4 4 5 5 6 7 8 9 8 7 7 7 7 8 8 9 8 7 5 4 4 4 6 7 10 11 12 12 12 11 10 10 9 9
11 10 10 11 11 10 8 7 7 7 7 7 7 7 7 6 6 5 5 5 5 4 4 4 4 4 4 3 4 4 4 4 4 5 5 5 5 5 6 7 8 8 8 7 6 6 7 8 9 9 8 7 5 4 4 4 5 7 9 11 12 12 12 11 10 10 9 9 9
9 9 9 11 12 11 10 8 8 7 7 7 7 6 6 6 5 5 4 4 4 4 4 3 4 4 4 3 3 4 4 4 5 5 6 6 6 6 7 8 8 8 7 6 6 6 7 8 9 8 7 6 4 3 4 5 6 8 10 11 12 12 11 10 10 9 9 8 9
7 7 8 11 12 11 10 8 7 7 7 6 6 6 5 5 4 4 4 4 4 4 4 3 3 3 4 4 4 4 5 6 6 6 6 6 6 7 8 9 8 7 6 6 6 7 8 9 8 7 6 4 4 4 4 6 8 9 10 11 11 11 10 9 9 9 8 9 9
7 8 9 11 11 10 9 8 7 6 6 6 6 5 5 4 4 4 4 3 4 4 4 3 3 3 4 4 4 5 6 6 7 7 6 7 7 8 8 8 7 6 6 6 7 8 8 8 7 6 4 3 4 4 6 7 8 10 10 11 10 10 9 9 8 8 8 9 9
8 10 11 11 10 9 8 7 6 6 6 6 5 5 5 4 4 4 4 4 4 4 4 4 4 4 4 5 6 6 7 7 7 7 7 7 8 8 8 7 6 5 6 7 8 8 8 7 6 4 4 3 4 5 6 8 9 10 10 10 10 9 8 8 8 8 8 9 9
11 11 11 10 9 8 7 7 6 6 6 6 6 6 5 5 4 4 4 4 4 4 4 4 5 5 6 6 7 7 7 8 8 8 8 8 8 8 7 6 5 5 6 7 8 8 7 6 4 4 4 4 5 6 7 8 9 9 10 9 9 8 8 8 8 8 9 9 10
12 11 10 9 8 8 7 7 7 7 7 7 6 6 6 5 5 5 4 4 4 4 5 5 6 7 7 8 8 8 8 8 8 8 8 8 8 7 6 5 5 6 7 8 7 7 6 4 4 4 4 5 6 7 8 8 9 9 9 9 8 8 7 7 8 8 9 10 10
12 11 10 10 10 9 9 8 8 8 8 7 7 7 6 6 6 5 5 5 5 6 6 7 8 8 9 10 10 10 9 9 8 8 8 8 7 6 4 4 5 6 7 7 7 6 5 4 4 4 5 6 6 7 8 8 8 8 8 8 8 7 7 7 8 8 9 10 10
12 11 11 12 11 11 10 10 10 9 8 8 8 7 7 7 6 6 6 6 7 7 8 9 10 10 11 11 10 10 10 9 8 8 8 7 6 5 4 5 6 7 7 7 6 5 4 4 4 4 5 6 7 7 7 7 7 8 8 7 7 7 7 7 8 9 10 10 10
12 13 13 14 13 13 12 12 11 10 9 9 9 8 8 8 8 8 8 8 9 10 10 11 11 12 12 11 10 10 9 8 8 7 6 5 5 4 5 6 6 7 7 6 5 5 4 4 5 5 6 6 7 7 7 7 7 6 6 6 6 6 6 7 8 9 10 10 11
14 15 15 16 15 15 15 14 12 11 10 10 10 10 9 9 9 9 9 10 11 12 12 13 13 12 12 10 9 8 8 7 7 6 5 4 4 4 5 6 7 6 6 5 5 4 4 4 5 6 6 7 7 7 7 7 7 6 6 5 5 6 6 7 8 9 10 11 11
16 17 18 18 17 17 16 15 15 14 13 12 11 10 10 10 10 10 11 12 13 13 13 13 13 12 10 9 8 7 7 6 6 5 4 4 4 5 6 6 6 6 6 4 4 4 4 4 5 5 6 6 7 7 7 7 7 6 6 5 5 5 6 7 8 9 10 11 11
17 18 18 18 19 19 18 18 18 17 16 14 13 12 11 11 12 12 13 14 14 14 13 13 11 10 8 8 7 7 6 6 5 4 4 4 5 5 6 6 6 5 5 4 4 4 4 4 5 5 6 6 6 7 7 6 6 6 6 6 6 6 7 8 9 10 11 12 11
15 16 17 18 19 19 20 21 21 20 18 16 14 13 12 12 12 13 13 13 13 12 11 10 8 8 7 7 6 6 5 5 4 4 4 4 5 6 6 6 5 4 4 3 4 4 4 5 5 5 5 6 6 6 6 6 6 6 6 6 6 6 8 9 10 11 11 12 12
13 14 15 16 17 19 21 23 23 21 19 16 15 14 13 12 12 12 11 11 10 10 9 7 7 7 6 6 5 4 4 4 4 4 4 5 5 6 5 5 4 3 3 3 4 4 5 5 5 5 5 5 6 6 6 6 5 5 5 5 6 7 8 9 10 11 12 12 12
12 13 13 14 16 18 21 22 22 21 19 17 15 14 13 12 10 9 8 8 8 8 8 7 7 6 6 5 4 4 4 4 4 4 5 5 5 5 5 4 3 2 2 3 4 4 5 5 5 5 5 5 5 5 5 5 5 5 5 5 6 7 8 9 10 11 12 12 12
12 12 12 12 14 16 19 21 21 20 18 17 15 14 12 10 8 8 8 8 7 7 6 6 5 4 4 4 4 4 4 4 4 4 5 5 5 4 4 3 2 2 2 3 4 5 5 5 5 5 5 5 5 5 5 5 5 5 6 6 7 8 9 10 11 12 12 12 12
11 11 11 10 12 14 17 20 20 19 18 16 16 14 12 9 8 7 7 6 6 5 4 3 3 2 2 2 3 3 4 4 4 4 5 5 4 3 2 2 2 2 3 4 5 5 5 5 5 5 5 5 5 5 5 5 5 6 6 7 7 9 10 11 12 12 12 12 12
11 10 10 10 10 12 15 18 18 18 18 18 16 15 13 11 8 5 3 2 3 3 4 4 3 3 4 4 4 4 4 4 4 4 4 4 3 2 2 2 2 3 4 5 5 5 5 5 5 5 5 5 6 6 5 5 5 6 6 7 8 9 11 12 12 13 13 12 12
11 10 10 9 10 11 13 15 16 18 19 20 18 15 12 10 7 5 3 2 3 4 4 4 5 5 5 4 4 4 4 4 4 4 4 3 2 2 2 3 4 4 5 5 5 5 5 4 4 5 5 6 6 6 6 6 6 6 7 7 9 10 11 12 12 12 12 12 13
12 11 10 10 9 10 12 13 14 16 19 21 18 14 10 6 4 4 4 4 5 6 5 5 5 5 4 4 4 4 4 4 4 3 3 2 2 2 3 4 5 5 5 5 5 4 4 4 5 5 6 6 6 6 6 6 7 7 8 9 10 11 12 12 12 12 12 12 12
12 12 11 10 10 10 11 12 14 16 18 18 16 12 8 5 3 3 5 7 7 6 5 5 5 4 4 4 4 4 4 4 3 2 2 2 2 4 5 6 6 6 5 5 4 4 4 4 5 5 6 6 6 6 7 7 8 8 9 10 11 12 13 13 12 12 12 12 12
13 13 13 12 11 11 12 13 15 16 16 15 12 9 7 6 6 6 7 8 8 7 5 5 5 4 4 4 4 4 3 3 2 2 2 3 4 5 5 6 6 5 5 4 4 4 4 5 5 6 6 6 7 7 8 8 9 10 11 12 12 13 13 13 12 12 11 11 11
13 13 13 13 12 12 13 14 15 15 15 13 11 9 8 8 8 9 9 10 9 8 6 5 5 4 4 4 3 3 2 2 2 2 3 4 5 5 6 6 5 5 4 4 4 4 5 5 6 6 6 7 8 9 10 10 10 11 12 13 14 13 13 13 12 11 10 10 11
13 13 13 12 12 13 13 14 14 14 14 12 11 11 11 11 11 10 10 10 8 7 6 5 4 4 3 3 2 2 2 2 2 3 4 5 5 5 5 5 5 4 4 4 4 4 5 6 6 7 7 8 10 10 11 11 12 12 13 14 14 13 12 10 11 11 11 10 11
Height
3116 3116 3117 3117 3117 3117 3117 3117 3117 3117 3117 3117 3117 3117 3117 3117 3117 3117 3117 3117 3117 3117 3117 3117 3116 3116 3116 3116 3116 3116 3116 3115 3115 3114 3114 3113 3113 3112 3112 3111 3110 3110 3109 3108 3107 3106 3106 3105 3104 3103 3102 3101 3100 3099 3097 3096 3095 3094 3093 3091 3090 3089 3088 3086 3085 3084 3082 3081 3079
3115 3115 3115 3115 3115 3115 3116 3116 3116 3116 3116 3116 3116 3116 3116 3116 3116 3116 3116 3116 3116 3115 3115 3115 3115 3115 3115 3114 3114 3114 3113 3113 3113 3112 3112 3111 3111 3110 3110 3109 3108 3107 3107 3106 3105 3104 3103 3102 3101 3101 3100 3098 3097 3096 3095 3094 3093 3091 3090 3089 3088 3086 3085 3084 3082 3081 3080 3078 3077
3113 3113 3113 3113 3113 3114 3114 3114 3114 3114 3114 3114 3114 3114 3114 3114 3114 3114 3114 3114 3114 3113 3113 3113 3113 3113 3113 3112 3112 3112 3111 3111 3111 3110 3110 3109 3109 3108 3107 3107 3106 3105 3105 3104 3103 3102 3101 3100 3099 3098 3097 3096 3095 3094 3092 3091 3090 3089 3088 3086 3085 3084 3082 3081 3080 3078 3077 3076 3074
3111 3111 3111 3112 3112 3112 3112 3112 3112 3112 3112 3112 3112 3112 3112 3112 3112 3112 3112 3112 3112 3112 3111 3111 3111 3111 3111 3111 3110 3110 3109 3109 3109 3108 3107 3107 3106 3106 3105 3105 3104 3103 3102 3101 3101 3100 3099 3098 3096 3096 3094 3093 3092 3091 3090 3088 3087 3086 3085 3084 3082 3081 3080 3078 3077 3076 3074 3073 3071
3109 3110 3110 3110 3110 3110 3110 3111 3111 3111 3111 3111 3111 3111 3111 3111 3111 3111 3110 3110 3110 3110 3110 3110 3109 3109 3109 3108 3108 3108 3107 3107 3106 3106 3105 3105 3104 3104 3103 3102 3101 3101 3100 3099 3098 3097 3096 3095 3094 3093 3092 3091 3089 3088 3087 3086 3085 3083 3082 3081 3080 3078 3077 3076 3074 3073 3071 3070 3068
3107 3108 3108 3108 3108 3109 3109 3109 3109 3109 3109 3109 3109 3109 3109 3109 3109 3109 3109 3108 3108 3108 3108 3107 3107 3107 3107 3106 3106 3106 3105 3105 3104 3104 3103 3103 3102 3101 3101 3100 3099 3098 3097 3096 3096 3095 3093 3092 3091 3090 3089 3088 3086 3085 3084 3083 3082 3081 3079 3078 3077 3075 3074 3072 3071 3070 3068 3067 3066
3106 3106 3106 3106 3107 3107 3107 3107 3107 3107 3107 3107 3107 3107 3107 3107 3107 3107 3106 3106 3106 3106 3106 3105 3105 3105 3105 3104 3104 3104 3103 3102 3102 3101 3101 3101 3100 3099 3098 3098 3097 3096 3095 3094 3093 3092 3091 3090 3089 3087 3086 3085 3084 3083 3081 3080 3079 3078 3076 3075 3074 3072 3071 3070 3068 3067 3066 3064 3063
3104 3104 3105 3105 3105 3105 3105 3106 3106 3106 3106 3106 3105 3105 3105 3105 3105 3105 3105 3104 3104 3104 3104 3103 3103 3103 3102 3102 3102 3101 3101 3101 3100 3099 3099 3098 3097 3097 3096 3095 3094 3093 3092 3091 3091 3089 3088 3087 3086 3085 3083 3082 3081 3080 3079 3077 3076 3075 3074 3072 3071 3070 3068 3066 3065 3064 3062 3061 3060
3102 3103 3103 3103 3103 3103 3104 3104 3104 3104 3104 3104 3104 3103 3103 3103 3103 3103 3102 3102 3102 3102 3101 3101 3101 3101 3100 3100 3100 3099 3099 3098 3098 3097 3096 3096 3095 3094 3094 3093 3092 3091 3090 3089 3088 3086 3085 3084 3083 3082 3081 3080 3078 3077 3076 3075 3074 3072 3071 3070 3068 3066 3065 3064 3062 3061 3059 3058 3057
3100 3101 3101 3101 3101 3102 3102 3102 3102 3102 3102 3102 3102 3101 3101 3101 3101 3101 3100 3100 3100 3100 3099 3099 3099 3099 3098 3098 3097 3097 3096 3096 3096 3095 3094 3094 3093 3092 3091 3090 3089 3088 3087 3086 3085 3084 3083 3081 3080 3079 3078 3077 3076 3074 3073 3072 3071 3070 3068 3067 3066 3064 3062 3061 3059 3058 3056 3055 3054
3099 3099 3099 3100 3100 3100 3100 3100 3100 3100 3100 3100 3100 3100 3099 3099 3099 3098 3098 3098 3098 3097 3097 3097 3097 3096 3096 3096 3095 3095 3094 3094 3093 3093 3092 3091 3091 3090 3089 3088 3087 3086 3085 3084 3082 3081 3080 3079 3077 3076 3075 3074 3073 3071 3070 3069 3068 3066 3065 3064 3063 3061 3060 3058 3056 3055 3054 3052 3051
3097 3097 3097 3098 3098 3098 3098 3098 3098 3098 3098 3098 3098 3097 3097 3097 3096 3096 3096 3096 3096 3096 3095 3095 3095 3094 3094 3094 3093 3093 3092 3092 3091 3091 3090 3089 3088 3087 3086 3085 3084 3083 3082 3081 3080 3078 3077 3076 3075 3074 3072 3071 3070 3069 3067 3066 3065 3064 3062 3061 3060 3058 3057 3055 3053 3052 3051 3049 3048
3095 3095 3096 3096 3096 3096 3096 3096 3096 3096 3096 3096 3096 3095 3095 3095 3095 3094 3094 3094 3094 3093 3093 3093 3092 3092 3092 3091 3091 3091 3090 3089 3089 3088 3087 3086 3086 3085 3084 3082 3081 3081 3079 3078 3077 3076 3075 3073 3072 3071 3070 3068 3067 3066 3065 3063 3062 3061 3060 3058 3057 3056 3054 3052 3051 3049 3048 3046 3045
3093 3093 3093 3094 3094 3094 3094 3094 3093 3093 3093 3093 3093 3093 3093 3093 3092 3092 3092 3092 3091 3091 3091 3091 3091 3090 3090 3089 3089 3088 3088 3087 3086 3086 3085 3084 3083 3082 3081 3080 3079 3078 3076 3076 3074 3073 3072 3071 3070 3068 3067 3066 3064 3063 3062 3061 3059 3058 3057 3055 3054 3052 3051 3050 3048 3046 3045 3043 3042
3091 3091 3091 3091 3091 3091 3091 3091 3091 3091 3091 3091 3091 3091 3091 3091 3090 3090 3090 3090 3089 3089 3089 3089 3088 3088 3087 3087 3086 3086 3085 3085 3084 3083 3082 3081 3080 3079 3078 3077 3076 3075 3074 3073 3071 3070 3069 3068 3067 3066 3064 3063 3061 3060 3059 3058 3056 3055 3054 3052 3051 3050 3048 3046 3045 3043 3042 3041 3039
3089 3089 3089 3089 3089 3089 3089 3089 3089 3089 3089 3089 3089 3089 3089 3088 3088 3088 3087 3087 3087 3087 3087 3086 3086 3086 3085 3085 3084 3083 3083 3082 3081 3081 3080 3079 3078 3077 3076 3075 3073 3072 3071 3070 3069 3067 3066 3065 3064 3063 3061 3060 3059 3057 3056 3055 3054 3052 3051 3050 3048 3047 3045 3044 3042 3041 3039 3037 3036
3087 3087 3087 3087 3086 3086 3086 3086 3086 3086 3086 3086 3086 3086 3086 3086 3086 3085 3085 3085 3085 3085 3085 3084 3084 3083 3083 3082 3082 3081 3081 3080 3079 3078 3077 3076 3075 3074 3073 3072 3071 3070 3068 3067 3066 3065 3063 3062 3061 3060 3059 3057 3056 3055 3053 3052 3051 3050 3048 3047 3045 3044 3042 3041 3039 3037 3036 3034 3033
3085 3085 3084 3084 3084 3084 3084 3084 3084 3084 3084 3084 3084 3084 3084 3083 3083 3083 3083 3083 3083 3082 3082 3082 3081 3081 3081 3080 3079 3079 3078 3077 3076 3075 3074 3073 3072 3071 3070 3069 3068 3067 3066 3064 3063 3062 3061 3059 3058 3057 3056 3054 3053 3052 3051 3049 3048 3046 3045 3044 3042 3041 3039 3037 3036 3034 3033 3031 3030
3082 3082 3082 3081 3081 3081 3081 3081 3082 3082 3082 3081 3081 3081 3081 3081 3081 3081 3081 3080 3080 3080 3080 3079 3079 3078 3078 3077 3076 3076 3075 3074 3073 3072 3071 3070 3069 3068 3067 3066 3065 3064 3063 3061 3060 3059 3058 3056 3055 3054 3052 3051 3050 3049 3047 3046 3045 3044 3042 3041 3039 3037 3036 3034 3033 3031 3030 3028 3027
3080 3079 3079 3079 3079 3079 3079 3079 3079 3079 3079 3079 3079 3079 3078 3078 3078 3078 3078 3078 3078 3077 3077 3077 3076 3076 3075 3075 3074 3073 3072 3071 3071 3070 3068 3067 3066 3066 3064 3063 3062 3061 3060 3059 3057 3056 3055 3053 3052 3051 3049 3048 3047 3046 3044 3043 3042 3040 3039 3037 3036 3034 3033 3031 3030 3028 3027 3025 3024
3077 3077 3076 3076 3076 3076 3076 3076 3076 3076 3076 3076 3076 3076 3076 3076 3076 3076 3076 3076 3075 3075 3075 3074 3074 3073 3073 3072 3071 3071 3070 3069 3068 3067 3066 3065 3064 3062 3061 3061 3059 3058 3057 3056 3054 3053 3051 3050 3049 3047 3046 3045 3044 3042 3041 3040 3038 3037 3036 3034 3033 3031 3030 3028 3027 3025 3024 3022 3020
3074 3074 3074 3074 3074 3074 3074 3074 3074 3073 3073 3073 3073 3073 3073 3073 3073 3073 3073 3073 3072 3072 3072 3071 3071 3071 3070 3069 3069 3068 3067 3066 3065 3064 3063 3061 3061 3060 3059 3057 3056 3055 3054 3053 3051 3050 3048 3047 3046 3044 3043 3041 3040 3039 3038 3036 3035 3033 3032 3031 3029 3028 3027 3025 3024 3022 3021 3019 3017
3072 3072 3071 3071 3071 3071 3071 3071 3071 3071 3070 3070 3070 3070 3070 3070 3070 3070 3070 3070 3070 3070 3069 3069 3068 3068 3067 3066 3066 3065 3064 3063 3062 3061 3060 3059 3058 3057 3056 3055 3054 3052 3051 3050 3048 3047 3045 3044 3042 3041 3040 3038 3037 3036 3034 3033 3031 3030 3029 3027 3026 3025 3023 3022 3021 3019 3017 3016 3014
3069 3069 3069 3069 3069 3068 3068 3068 3068 3067 3067 3067 3067 3067 3068 3068 3068 3068 3068 3068 3067 3067 3066 3066 3066 3065 3064 3064 3063 3062 3061 3060 3059 3058 3057 3056 3055 3054 3053 3052 3051 3050 3048 3047 3045 3044 3042 3041 3039 3038 3036 3035 3033 3032 3031 3029 3028 3026 3025 3024 3022 3021 3020 3019 3017 3016 3014 3012 3011
3067 3066 3066 3066 3066 3066 3065 3065 3065 3065 3065 3065 3065 3065 3065 3065 3065 3065 3065 3065 3065 3064 3064 3063 3062 3062 3061 3061 3060 3059 3058 3057 3056 3055 3054 3053 3052 3051 3050 3049 3048 3047 3045 3044 3042 3041 3039 3037 3036 3034 3033 3031 3030 3029 3027 3026 3025 3023 3022 3020 3019 3018 3016 3015 3014 3012 3011 3009 3007
3064 3064 3063 3063 3063 3063 3062 3062 3062 3062 3062 3062 3062 3062 3062 3062 3062 3062 3062 3062 3062 3061 3061 3060 3060 3059 3058 3057 3057 3056 3055 3054 3053 3052 3051 3050 3049 3048 3047 3046 3045 3044 3042 3041 3039 3037 3036 3034 3032 3031 3029 3028 3026 3025 3023 3022 3021 3020 3019 3017 3016 3014 3013 3011 3010 3009 3007 3005 3003
3061 3061 3061 3061 3060 3060 3060 3060 3059 3059 3059 3059 3059 3059 3059 3059 3059 3059 3059 3059 3059 3058 3058 3057 3056 3056 3055 3054 3054 3053 3052 3051 3050 3049 3048 3047 3046 3045 3044 3043 3042 3041 3040 3038 3036 3034 3032 3031 3029 3027 3026 3024 3022 3021 3019 3018 3017 3016 3015 3014 3012 3011 3010 3008 3007 3005 3004 3002 3000
3059 3058 3058 3058 3057 3057 3057 3057 3056 3056 3056 3056 3056 3056 3056 3056 3056 3056 3056 3056 3056 3055 3055 3054 3053 3053 3052 3051 3051 3050 3049 3048 3047 3046 3045 3044 3043 3042 3041 3040 3039 3038 3036 3035 3033 3031 3029 3028 3026 3024 3022 3020 3018 3016 3015 3013 3012 3011 3010 3009 3008 3007 3006 3005 3003 3001 3000 2998 2996
3056 3056 3055 3055 3054 3054 3054 3054 3054 3054 3054 3054 3054 3054 3054 3054 3053 3053 3053 3053 3052 3052 3051 3051 3050 3049 3049 3048 3047 3046 3046 3045 3044 3043 3042 3041 3040 3039 3038 3037 3036 3035 3033 3032 3030 3028 3026 3025 3023 3021 3019 3017 3015 3013 3011 3009 3008 3007 3006 3005 3004 3003 3001 3000 2998 2997 2996 2994 2992
3053 3053 3052 3052 3052 3051 3051 3051 3051 3051 3051 3051 3051 3051 3051 3051 3051 3050 3050 3050 3049 3049 3048 3047 3047 3046 3046 3045 3044 3044 3043 3042 3041 3040 3039 3038 3037 3036 3035 3034 3033 3031 3030 3029 3027 3025 3023 3022 3020 3018 3016 3014 3012 3010 3007 3006 3004 3003 3001 3000 2999 2998 2997 2995 2994 2992 2991 2989 2988
3051 3050 3050 3050 3049 3049 3049 3049 3049 3048 3048 3048 3048 3048 3048 3048 3048 3047 3047 3047 3046 3046 3045 3044 3044 3043 3043 3042 3041 3041 3040 3039 3038 3037 3036 3035 3034 3033 3032 3031 3030 3028 3027 3026 3024 3022 3021 3019 3017 3015 3013 3011 3009 3006 3004 3002 3001 2999 2998 2996 2995 2994 2993 2991 2990 2988 2986 2985 2983
3048 3048 3047 3047 3047 3046 3046 3046 3046 3046 3046 3046 3046 3045 3045 3045 3045 3045 3044 3044 3043 3042 3042 3041 3041 3041 3040 3039 3039 3038 3037 3036 3035 3034 3033 3032 3031 3030 3028 3027 3026 3025 3024 3023 3021 3019 3017 3016 3014 3012 3010 3008 3006 3003 3001 2999 2997 2996 2994 2992 2991 2990 2989 2987 2986 2984 2982 2981 2979
3046 3046 3045 3045 3044 3044 3044 3044 3043 3043 3043 3043 3043 3043 3042 3042 3042 3042 3041 3041 3040 3040 3039 3039 3038 3038 3037 3036 3036 3035 3034 3033 3032 3031 3030 3029 3027 3026 3025 3024 3023 3022 3021 3019 3018 3016 3015 3013 3011 3009 3007 3005 3002 3000 2998 2996 2994 2992 2990 2988 2987 2986 2985 2984 2982 2981 2979 2977 2975
3044 3043 3043 3042 3042 3042 3041 3041 3041 3041 3041 3040 3040 3040 3040 3040 3039 3039 3038 3038 3037 3037 3036 3036 3036 3035 3034 3034 3033 3032 3031 3030 3029 3028 3027 3026 3024 3023 3021 3020 3019 3018 3017 3016 3015 3013 3011 3010 3008 3006 3004 3001 2999 2996 2994 2992 2990 2988 2986 2985 2983 2982 2981 2980 2978 2977 2975 2974 2972
3042 3041 3041 3040 3040 3039 3039 3039 3039 3038 3038 3038 3038 3037 3037 3037 3036 3036 3036 3035 3034 3034 3034 3033 3033 3032 3032 3031 3030 3029 3028 3027 3026 3025 3024 3022 3021 3019 3018 3017 3016 3015 3014 3013 3011 3010 3008 3006 3004 3002 3000 2998 2995 2993 2991 2988 2986 2984 2982 2981 2980 2978 2977 2976 2974 2973 2971 2970 2968
3040 3039 3039 3038 3038 3037 3037 3037 3036 3036 3036 3036 3035 3035 3035 3034 3034 3033 3033 3032 3032 3031 3031 3031 3030 3030 3029 3028 3027 3026 3025 3024 3023 3022 3021 3019 3017 3016 3014 3013 3012 3011 3011 3009 3008 3006 3005 3003 3001 2999 2996 2994 2991 2989 2986 2984 2982 2980 2979 2977 2976 2975 2974 2972 2971 2969 2968 2966 2965
3038 3037 3036 3036 3036 3035 3035 3035 3034 3034 3033 3033 3033 3032 3032 3031 3031 3031 3030 3030 3029 3029 3028 3028 3027 3027 3026 3025 3024 3023 3022 3021 3020 3019 3017 3016 3014 3012 3011 3009 3008 3008 3007 3006 3004 3003 3001 3000 2998 2996 2993 2991 2988 2985 2983 2981 2978 2976 2974 2973 2972 2971 2970 2969 2967 2965 2964 2962 2961
3036 3035 3035 3034 3034 3033 3033 3032 3032 3032 3031 3031 3031 3030 3030 3029 3028 3028 3028 3027 3027 3026 3026 3026 3025 3024 3023 3022 3021 3020 3019 3018 3017 3015 3014 3012 3011 3009 3007 3006 3005 3004 3003 3002 3001 2999 2998 2996 2994 2992 2990 2987 2984 2981 2979 2977 2974 2972 2970 2969 2967 2966 2965 2964 2963 2961 2959 2958 2958
3034 3033 3033 3032 3032 3031 3031 3031 3030 3030 3029 3029 3028 3028 3027 3026 3026 3026 3025 3025 3024 3024 3023 3023 3022 3021 3020 3019 3018 3017 3016 3015 3013 3012 3010 3009 3007 3006 3004 3002 3001 3000 2999 2998 2997 2996 2994 2992 2991 2989 2986 2984 2981 2978 2976 2973 2971 2968 2966 2965 2963 2962 2960 2959 2958 2956 2955 2953 2953
3031 3031 3031 3030 3030 3029 3029 3028 3028 3027 3027 3026 3026 3026 3025 3025 3024 3023 3023 3022 3022 3021 3021 3020 3019 3018 3017 3016 3015 3014 3012 3011 3010 3009 3007 3005 3004 3002 3001 2999 2998 2997 2996 2995 2993 2991 2990 2988 2987 2985 2982 2980 2977 2974 2972 2969 2966 2964 2962 2961 2960 2958 2956 2954 2952 2951 2950 2949 2948
3030 3029 3029 3028 3028 3027 3027 3026 3026 3025 3025 3024 3024 3023 3023 3022 3022 3021 3021 3020 3020 3019 3018 3017 3016 3015 3014 3013 3011 3010 3009 3008 3006 3005 3004 3002 3000 2999 2997 2996 2994 2993 2992 2991 2990 2988 2986 2984 2983 2981 2979 2976 2973 2970 2968 2965 2962 2960 2958 2957 2956 2953 2951 2949 2948 2946 2945 2944 2943